,,,PA_Meas_PMT16A,,PR_Meas_QMR101_102,,RH_Meas_QMH101,,SR_Meas_QMS101,,TA_Meas_QMH101,,GenWind,,GenWind,
date,time,status,PA,status,PR,status,RH,status,SR,status,TA,status,DirAvg,status,SpdAvg,
2010-06-30, 00:00:05,VALID,1009.72,VALID,0,VALID,101.979,VALID,0,VALID,24.1422,VALID,87,VALID,0.791406,
2010-06-30, 00:01:05,VALID,1009.68,VALID,0,VALID,101.979,VALID,0,VALID,24.1227,VALID,44,VALID,0.469922,
2010-06-30, 00:02:05,VALID,1009.67,VALID,0,VALID,101.979,VALID,0,VALID,24.1245,VALID,44,VALID,0.466797,
2010-06-30, 00:03:05,VALID,1009.64,VALID,0,VALID,102.01,VALID,0,VALID,24.1227,VALID,62,VALID,0.507422,
2010-06-30, 00:04:05,VALID,1009.63,VALID,0,VALID,102.025,VALID,0,VALID,24.1032,VALID,70,VALID,0.287109,
2010-06-30, 00:05:05,VALID,1009.64,VALID,0,VALID,102.071,VALID,0,VALID,24.0624,VALID,54,VALID,0.670313,
2010-06-30, 00:06:05,VALID,1009.67,VALID,0,VALID,102.078,VALID,0.105969,VALID,24.0643,VALID,71,VALID,0.780859,
2010-06-30, 00:07:05,VALID,1009.66,VALID,0,VALID,102.086,VALID,0.105969,VALID,24.0837,VALID,100,VALID,0.826953,
2010-06-30, 00:08:05,VALID,1009.69,VALID,0,VALID,102.116,VALID,0,VALID,24.0819,VALID,106,VALID,0.844922,
2010-06-30, 00:09:05,VALID,1009.7,VALID,0,VALID,102.132,VALID,0.105969,VALID,24.1032,VALID,134,VALID,0.755859,
2010-06-30, 00:10:05,VALID,1009.72,VALID,0,VALID,102.147,VALID,0.105969,VALID,24.1032,VALID,145,VALID,0.58125,
2010-06-30, 00:11:05,VALID,1009.76,VALID,0,VALID,102.177,VALID,0,VALID,24.1227,VALID,125,VALID,0.495703,
2010-06-30, 00:12:05,VALID,1009.78,VALID,0,VALID,102.177,VALID,0,VALID,24.1227,VALID,219,VALID,0.596875,
2010-06-30, 00:13:05,VALID,1009.78,VALID,0,VALID,102.185,VALID,0.105969,VALID,24.1227,VALID,214,VALID,0.287891,
2010-06-30, 00:14:05,VALID,1009.76,VALID,0,VALID,102.185,VALID,0,VALID,24.1014,VALID,214,VALID,0,
2010-06-30, 00:15:05,VALID,1009.77,VALID,0,VALID,102.17,VALID,0,VALID,24.1032,VALID,214,VALID,0,
2010-06-30, 00:16:05,VALID,1009.73,VALID,0,VALID,102.147,VALID,0,VALID,24.1032,VALID,214,VALID,0,
2010-06-30, 00:17:05,VALID,1009.68,VALID,0,VALID,102.177,VALID,0,VALID,24.1032,VALID,214,VALID,0,
2010-06-30, 00:18:05,VALID,1009.67,VALID,0,VALID,102.2,VALID,0,VALID,24.1032,VALID,214,VALID,0,
2010-06-30, 00:19:05,VALID,1009.62,VALID,0,VALID,102.193,VALID,0,VALID,24.1032,VALID,159,VALID,0,
2010-06-30, 00:20:05,VALID,1009.62,VALID,0,VALID,102.147,VALID,0,VALID,24.1032,VALID,159,VALID,0,
2010-06-30, 00:21:05,VALID,1009.61,VALID,0,VALID,102.17,VALID,0,VALID,24.0819,VALID,159,VALID,0,
2010-06-30, 00:22:05,VALID,1009.6,VALID,0,VALID,102.17,VALID,0,VALID,24.0819,VALID,129,VALID,0,
2010-06-30, 00:23:05,VALID,1009.6,VALID,0,VALID,102.216,VALID,0,VALID,24.0837,VALID,129,VALID,0,
2010-06-30, 00:24:05,VALID,1009.61,VALID,0,VALID,102.231,VALID,0,VALID,24.0837,VALID,129,VALID,0,
2010-06-30, 00:25:05,VALID,1009.66,VALID,0,VALID,102.261,VALID,0,VALID,24.0837,VALID,129,VALID,0,
2010-06-30, 00:26:05,VALID,1009.66,VALID,0,VALID,102.315,VALID,0.105969,VALID,24.0837,VALID,129,VALID,0,
2010-06-30, 00:27:05,VALID,1009.71,VALID,0,VALID,102.345,VALID,0,VALID,24.0837,VALID,129,VALID,0,
2010-06-30, 00:28:05,VALID,1009.74,VALID,0,VALID,102.383,VALID,0,VALID,24.1032,VALID,129,VALID,0,
2010-06-30, 00:29:05,VALID,1009.75,VALID,0,VALID,102.421,VALID,0,VALID,24.0837,VALID,129,VALID,0,
2010-06-30, 00:30:05,VALID,1009.76,VALID,0,VALID,102.406,VALID,0,VALID,24.0643,VALID,129,VALID,0,
2010-06-30, 00:31:05,VALID,1009.75,VALID,0,VALID,102.421,VALID,0,VALID,24.0643,VALID,129,VALID,0,
2010-06-30, 00:32:05,VALID,1009.76,VALID,0,VALID,102.414,VALID,0,VALID,24.0429,VALID,129,VALID,0,
2010-06-30, 00:33:05,VALID,1009.75,VALID,0,VALID,102.421,VALID,0,VALID,24.0643,VALID,129,VALID,0,
2010-06-30, 00:34:05,VALID,1009.74,VALID,0,VALID,102.406,VALID,0,VALID,24.0429,VALID,129,VALID,0,
2010-06-30, 00:35:05,VALID,1009.72,VALID,0,VALID,102.437,VALID,0,VALID,24.0643,VALID,129,VALID,0,
2010-06-30, 00:36:05,VALID,1009.71,VALID,0,VALID,102.406,VALID,0.105969,VALID,24.0643,VALID,129,VALID,0,
2010-06-30, 00:37:05,VALID,1009.69,VALID,0,VALID,102.406,VALID,0,VALID,24.0448,VALID,129,VALID,0,
2010-06-30, 00:38:05,VALID,1009.66,VALID,0,VALID,102.437,VALID,0.105969,VALID,24.0643,VALID,129,VALID,0,
2010-06-30, 00:39:05,VALID,1009.65,VALID,0,VALID,102.49,VALID,0,VALID,24.0643,VALID,129,VALID,0,
2010-06-30, 00:40:05,VALID,1009.62,VALID,0,VALID,102.521,VALID,0,VALID,24.0643,VALID,129,VALID,0,
2010-06-30, 00:41:05,VALID,1009.59,VALID,0,VALID,102.521,VALID,0,VALID,24.0253,VALID,129,VALID,0,
2010-06-30, 00:42:05,VALID,1009.56,VALID,0,VALID,102.544,VALID,0,VALID,24.0058,VALID,129,VALID,0,
2010-06-30, 00:43:05,VALID,1009.56,VALID,0,VALID,102.551,VALID,0,VALID,24.0058,VALID,129,VALID,0,
2010-06-30, 00:44:05,VALID,1009.52,VALID,0,VALID,102.566,VALID,0,VALID,24.0058,VALID,129,VALID,0,
2010-06-30, 00:45:05,VALID,1009.52,VALID,0,VALID,102.589,VALID,0,VALID,23.9863,VALID,129,VALID,0,
2010-06-30, 00:46:05,VALID,1009.51,VALID,0,VALID,102.605,VALID,0,VALID,23.9668,VALID,122,VALID,0,
2010-06-30, 00:47:05,VALID,1009.54,VALID,0,VALID,102.612,VALID,0,VALID,23.9473,VALID,31,VALID,0,
2010-06-30, 00:48:05,VALID,1009.56,VALID,0,VALID,102.627,VALID,0,VALID,23.9668,VALID,31,VALID,0,
2010-06-30, 00:49:04,VALID,1009.6,VALID,0,VALID,102.62,VALID,0,VALID,23.9863,VALID,31,VALID,0,
2010-06-30, 00:50:04,VALID,1009.59,VALID,0,VALID,102.627,VALID,0,VALID,24.0058,VALID,336,VALID,0,
2010-06-30, 00:51:04,VALID,1009.62,VALID,0,VALID,102.635,VALID,0,VALID,23.9863,VALID,336,VALID,0,
2010-06-30, 00:52:04,VALID,1009.61,VALID,0,VALID,102.635,VALID,0,VALID,24.0058,VALID,336,VALID,0,
2010-06-30, 00:53:04,VALID,1009.63,VALID,0,VALID,102.635,VALID,0,VALID,24.0253,VALID,336,VALID,0,
2010-06-30, 00:54:04,VALID,1009.64,VALID,0,VALID,102.627,VALID,0,VALID,24.0253,VALID,336,VALID,0,
2010-06-30, 00:55:04,VALID,1009.63,VALID,0,VALID,102.635,VALID,0,VALID,24.0253,VALID,336,VALID,0,
2010-06-30, 00:56:04,VALID,1009.64,VALID,0,VALID,102.65,VALID,0,VALID,24.0058,VALID,336,VALID,0,
2010-06-30, 00:57:04,VALID,1009.65,VALID,0,VALID,102.643,VALID,0,VALID,24.0058,VALID,336,VALID,0,
2010-06-30, 00:58:04,VALID,1009.63,VALID,0,VALID,102.635,VALID,0,VALID,24.0058,VALID,336,VALID,0,
2010-06-30, 00:59:04,VALID,1009.64,VALID,0,VALID,102.65,VALID,0,VALID,23.9863,VALID,336,VALID,0,
2010-06-30, 01:00:04,VALID,1009.59,VALID,0,VALID,102.643,VALID,0,VALID,23.9863,VALID,336,VALID,0,
2010-06-30, 01:01:04,VALID,1009.59,VALID,0,VALID,102.666,VALID,0,VALID,23.9863,VALID,336,VALID,0,
2010-06-30, 01:02:04,VALID,1009.57,VALID,0,VALID,102.681,VALID,0,VALID,23.9668,VALID,336,VALID,0,
2010-06-30, 01:03:04,VALID,1009.56,VALID,0,VALID,102.688,VALID,0,VALID,23.926,VALID,336,VALID,0,
2010-06-30, 01:04:04,VALID,1009.57,VALID,0,VALID,102.696,VALID,0,VALID,23.9473,VALID,336,VALID,0,
2010-06-30, 01:05:04,VALID,1009.55,VALID,0,VALID,102.681,VALID,0,VALID,23.9278,VALID,336,VALID,0,
2010-06-30, 01:06:04,VALID,1009.53,VALID,0,VALID,102.666,VALID,0,VALID,23.8871,VALID,336,VALID,0,
2010-06-30, 01:07:04,VALID,1009.52,VALID,0,VALID,102.673,VALID,0,VALID,23.9084,VALID,336,VALID,0,
2010-06-30, 01:08:04,VALID,1009.52,VALID,0,VALID,102.681,VALID,0,VALID,23.9084,VALID,336,VALID,0,
2010-06-30, 01:09:04,VALID,1009.5,VALID,0,VALID,102.673,VALID,0,VALID,23.9084,VALID,336,VALID,0,
2010-06-30, 01:10:04,VALID,1009.48,VALID,0,VALID,102.696,VALID,0,VALID,23.9084,VALID,336,VALID,0,
2010-06-30, 01:11:04,VALID,1009.49,VALID,0,VALID,102.704,VALID,0.105969,VALID,23.8889,VALID,336,VALID,0,
2010-06-30, 01:12:04,VALID,1009.47,VALID,0,VALID,102.681,VALID,0,VALID,23.8889,VALID,336,VALID,0,
2010-06-30, 01:13:04,VALID,1009.5,VALID,0,VALID,102.681,VALID,0,VALID,23.9084,VALID,336,VALID,0,
2010-06-30, 01:14:04,VALID,1009.48,VALID,0,VALID,102.673,VALID,0,VALID,23.9084,VALID,336,VALID,0,
2010-06-30, 01:15:04,VALID,1009.51,VALID,0,VALID,102.681,VALID,0,VALID,23.9084,VALID,336,VALID,0,
2010-06-30, 01:16:04,VALID,1009.48,VALID,0,VALID,102.696,VALID,0,VALID,23.9084,VALID,336,VALID,0,
2010-06-30, 01:17:04,VALID,1009.46,VALID,0,VALID,102.681,VALID,0,VALID,23.9278,VALID,336,VALID,0,
2010-06-30, 01:18:04,VALID,1009.48,VALID,0,VALID,102.673,VALID,0,VALID,23.9473,VALID,336,VALID,0,
2010-06-30, 01:19:04,VALID,1009.42,VALID,0,VALID,102.658,VALID,0,VALID,23.9473,VALID,336,VALID,0,
2010-06-30, 01:20:04,VALID,1009.39,VALID,0,VALID,102.65,VALID,0.105969,VALID,23.9455,VALID,336,VALID,0,
2010-06-30, 01:21:04,VALID,1009.37,VALID,0,VALID,102.643,VALID,0,VALID,23.9668,VALID,336,VALID,0,
2010-06-30, 01:22:04,VALID,1009.35,VALID,0,VALID,102.673,VALID,0,VALID,23.9668,VALID,336,VALID,0,
2010-06-30, 01:23:04,VALID,1009.31,VALID,0,VALID,102.666,VALID,0,VALID,23.9668,VALID,336,VALID,0,
2010-06-30, 01:24:04,VALID,1009.31,VALID,0,VALID,102.658,VALID,0,VALID,23.9668,VALID,336,VALID,0,
2010-06-30, 01:25:04,VALID,1009.3,VALID,0,VALID,102.666,VALID,0.105969,VALID,23.9863,VALID,336,VALID,0,
2010-06-30, 01:26:04,VALID,1009.29,VALID,0,VALID,102.673,VALID,0,VALID,23.9863,VALID,266,VALID,0,
2010-06-30, 01:27:04,VALID,1009.27,VALID,0,VALID,102.673,VALID,0,VALID,24.0058,VALID,252,VALID,0,
2010-06-30, 01:28:04,VALID,1009.27,VALID,0,VALID,102.688,VALID,0,VALID,24.0058,VALID,245,VALID,0.723828,
2010-06-30, 01:29:04,VALID,1009.3,VALID,0,VALID,102.696,VALID,0,VALID,24.0058,VALID,235,VALID,0.526563,
2010-06-30, 01:30:04,VALID,1009.26,VALID,0,VALID,102.673,VALID,0,VALID,24.0466,VALID,235,VALID,0.25,
2010-06-30, 01:31:04,VALID,1009.29,VALID,0,VALID,102.688,VALID,0,VALID,24.0448,VALID,220,VALID,0.490625,
2010-06-30, 01:32:04,VALID,1009.29,VALID,0,VALID,102.696,VALID,0,VALID,24.0253,VALID,208,VALID,0.555859,
2010-06-30, 01:33:04,VALID,1009.29,VALID,0,VALID,102.681,VALID,0,VALID,24.0253,VALID,208,VALID,0.413672,
2010-06-30, 01:34:04,VALID,1009.27,VALID,0,VALID,102.673,VALID,0,VALID,24.0448,VALID,208,VALID,0.344531,
2010-06-30, 01:35:04,VALID,1009.27,VALID,0,VALID,102.688,VALID,0,VALID,24.0643,VALID,208,VALID,0.154297,
2010-06-30, 01:36:04,VALID,1009.24,VALID,0,VALID,102.696,VALID,0,VALID,24.0448,VALID,208,VALID,0,
2010-06-30, 01:37:04,VALID,1009.27,VALID,0,VALID,102.711,VALID,0,VALID,24.0643,VALID,208,VALID,0,
2010-06-30, 01:38:04,VALID,1009.27,VALID,0,VALID,102.688,VALID,0,VALID,24.0643,VALID,208,VALID,0,
2010-06-30, 01:39:04,VALID,1009.27,VALID,0,VALID,102.704,VALID,0,VALID,24.0643,VALID,208,VALID,0.275,
2010-06-30, 01:40:04,VALID,1009.27,VALID,0,VALID,102.711,VALID,0,VALID,24.0643,VALID,208,VALID,0.386719,
2010-06-30, 01:41:04,VALID,1009.29,VALID,0,VALID,102.704,VALID,0,VALID,24.0837,VALID,208,VALID,0.376172,
2010-06-30, 01:42:04,VALID,1009.31,VALID,0,VALID,102.719,VALID,0,VALID,24.1051,VALID,208,VALID,0.300781,
2010-06-30, 01:43:04,VALID,1009.29,VALID,0,VALID,102.704,VALID,0,VALID,24.0837,VALID,208,VALID,0.123828,
2010-06-30, 01:44:04,VALID,1009.31,VALID,0,VALID,102.696,VALID,0,VALID,24.1032,VALID,208,VALID,0,
2010-06-30, 01:45:04,VALID,1009.27,VALID,0,VALID,102.711,VALID,0,VALID,24.1032,VALID,208,VALID,0,
2010-06-30, 01:46:04,VALID,1009.24,VALID,0,VALID,102.704,VALID,0,VALID,24.1227,VALID,208,VALID,0,
2010-06-30, 01:47:04,VALID,1009.24,VALID,0,VALID,102.696,VALID,0,VALID,24.1227,VALID,208,VALID,0,
2010-06-30, 01:48:04,VALID,1009.25,VALID,0,VALID,102.719,VALID,0,VALID,24.1227,VALID,208,VALID,0,
2010-06-30, 01:49:04,VALID,1009.26,VALID,0,VALID,102.688,VALID,0,VALID,24.1032,VALID,208,VALID,0,
2010-06-30, 01:50:04,VALID,1009.24,VALID,0,VALID,102.696,VALID,0,VALID,24.1227,VALID,208,VALID,0,
2010-06-30, 01:51:04,VALID,1009.24,VALID,0,VALID,102.673,VALID,0,VALID,24.1227,VALID,193,VALID,0.480078,
2010-06-30, 01:52:04,VALID,1009.25,VALID,0,VALID,102.666,VALID,0,VALID,24.1422,VALID,193,VALID,0.688281,
2010-06-30, 01:53:04,VALID,1009.27,VALID,0,VALID,102.658,VALID,0,VALID,24.1227,VALID,182,VALID,0.683594,
2010-06-30, 01:54:04,VALID,1009.27,VALID,0,VALID,102.681,VALID,0,VALID,24.1032,VALID,182,VALID,0.426172,
2010-06-30, 01:55:04,VALID,1009.27,VALID,0,VALID,102.65,VALID,0,VALID,24.1227,VALID,182,VALID,0.313672,
2010-06-30, 01:56:04,VALID,1009.25,VALID,0,VALID,102.673,VALID,0,VALID,24.1032,VALID,169,VALID,0.710938,
2010-06-30, 01:57:04,VALID,1009.23,VALID,0,VALID,102.658,VALID,0,VALID,24.1209,VALID,163,VALID,0.780469,
2010-06-30, 01:58:04,VALID,1009.2,VALID,0,VALID,102.65,VALID,0,VALID,24.1617,VALID,163,VALID,0.324609,
2010-06-30, 01:59:04,VALID,1009.18,VALID,0,VALID,102.658,VALID,0,VALID,24.1617,VALID,188,VALID,0.246875,
2010-06-30, 02:00:04,VALID,1009.16,VALID,0,VALID,102.65,VALID,0,VALID,24.1812,VALID,185,VALID,0.474219,
2010-06-30, 02:01:04,VALID,1009.15,VALID,0,VALID,102.666,VALID,0,VALID,24.1617,VALID,173,VALID,0.585938,
2010-06-30, 02:02:04,VALID,1009.12,VALID,0,VALID,102.643,VALID,0,VALID,24.2007,VALID,173,VALID,0.675,
2010-06-30, 02:03:04,VALID,1009.11,VALID,0,VALID,102.65,VALID,0,VALID,24.1812,VALID,173,VALID,0.780859,
2010-06-30, 02:04:04,VALID,1009.08,VALID,0,VALID,102.627,VALID,0,VALID,24.222,VALID,166,VALID,0.919531,
2010-06-30, 02:05:04,VALID,1009.08,VALID,0,VALID,102.635,VALID,0,VALID,24.1988,VALID,148,VALID,0.413672,
2010-06-30, 02:06:04,VALID,1009.08,VALID,0,VALID,102.643,VALID,0,VALID,24.2202,VALID,175,VALID,0.626953,
2010-06-30, 02:07:04,VALID,1009.08,VALID,0,VALID,102.612,VALID,0,VALID,24.2202,VALID,144,VALID,0.396094,
2010-06-30, 02:08:04,VALID,1009.08,VALID,0,VALID,102.635,VALID,0,VALID,24.2202,VALID,144,VALID,0.198437,
2010-06-30, 02:09:04,VALID,1009.08,VALID,0,VALID,102.605,VALID,0,VALID,24.2202,VALID,144,VALID,0.510938,
2010-06-30, 02:10:04,VALID,1009.09,VALID,0,VALID,102.597,VALID,0,VALID,24.2202,VALID,148,VALID,0.940625,
2010-06-30, 02:11:04,VALID,1009.1,VALID,0,VALID,102.582,VALID,0,VALID,24.2396,VALID,166,VALID,1.07617,
2010-06-30, 02:12:04,VALID,1009.11,VALID,0,VALID,102.528,VALID,0,VALID,24.2786,VALID,145,VALID,0.775781,
2010-06-30, 02:13:04,VALID,1009.12,VALID,0,VALID,102.475,VALID,0,VALID,24.2786,VALID,136,VALID,1.02813,
2010-06-30, 02:14:04,VALID,1009.11,VALID,0,VALID,102.444,VALID,0,VALID,24.2786,VALID,154,VALID,0.256641,
2010-06-30, 02:15:04,VALID,1009.1,VALID,0,VALID,102.399,VALID,0,VALID,24.2786,VALID,126,VALID,0.758203,
2010-06-30, 02:16:04,VALID,1009.13,VALID,0,VALID,102.406,VALID,0,VALID,24.2786,VALID,121,VALID,0.707422,
2010-06-30, 02:17:04,VALID,1009.13,VALID,0,VALID,102.376,VALID,0,VALID,24.2591,VALID,117,VALID,0.794141,
2010-06-30, 02:18:04,VALID,1009.14,VALID,0,VALID,102.33,VALID,0,VALID,24.2786,VALID,111,VALID,0.901953,
2010-06-30, 02:19:04,VALID,1009.14,VALID,0,VALID,102.277,VALID,0,VALID,24.2786,VALID,108,VALID,0.602344,
2010-06-30, 02:20:04,VALID,1009.15,VALID,0,VALID,102.292,VALID,0,VALID,24.2786,VALID,131,VALID,1.00586,
2010-06-30, 02:21:04,VALID,1009.18,VALID,0,VALID,102.223,VALID,0,VALID,24.2786,VALID,104,VALID,0.572656,
2010-06-30, 02:22:04,VALID,1009.18,VALID,0,VALID,102.177,VALID,0,VALID,24.2591,VALID,126,VALID,0.977344,
2010-06-30, 02:23:04,VALID,1009.15,VALID,0,VALID,102.162,VALID,0,VALID,24.2591,VALID,117,VALID,0.552344,
2010-06-30, 02:24:04,VALID,1009.16,VALID,0,VALID,102.162,VALID,0,VALID,24.2396,VALID,121,VALID,0.682422,
2010-06-30, 02:25:04,VALID,1009.12,VALID,0,VALID,102.162,VALID,0,VALID,24.261,VALID,89,VALID,0.55625,
2010-06-30, 02:26:04,VALID,1009.13,VALID,0,VALID,102.193,VALID,0,VALID,24.2396,VALID,91,VALID,0.811719,
2010-06-30, 02:27:04,VALID,1009.11,VALID,0,VALID,102.185,VALID,0,VALID,24.2202,VALID,103,VALID,0.460156,
2010-06-30, 02:28:04,VALID,1009.11,VALID,0,VALID,102.223,VALID,0,VALID,24.2007,VALID,103,VALID,0.410937,
2010-06-30, 02:29:04,VALID,1009.12,VALID,0,VALID,102.246,VALID,0,VALID,24.1812,VALID,111,VALID,0.516797,
2010-06-30, 02:30:04,VALID,1009.09,VALID,0,VALID,102.254,VALID,0,VALID,24.1812,VALID,111,VALID,0.163672,
2010-06-30, 02:31:04,VALID,1009.08,VALID,0,VALID,102.277,VALID,0,VALID,24.1404,VALID,111,VALID,0.0316406,
2010-06-30, 02:32:04,VALID,1009.08,VALID,0,VALID,102.299,VALID,0,VALID,24.1617,VALID,95,VALID,0.649219,
2010-06-30, 02:33:04,VALID,1009.07,VALID,0,VALID,102.299,VALID,0,VALID,24.1617,VALID,104,VALID,0.707812,
2010-06-30, 02:34:04,VALID,1009.05,VALID,0,VALID,102.299,VALID,0,VALID,24.1422,VALID,102,VALID,0.263672,
2010-06-30, 02:35:04,VALID,1009.08,VALID,0,VALID,102.307,VALID,0,VALID,24.1422,VALID,102,VALID,0.680859,
2010-06-30, 02:36:04,VALID,1009.1,VALID,0,VALID,102.322,VALID,0,VALID,24.1227,VALID,103,VALID,0.430078,
2010-06-30, 02:37:04,VALID,1009.09,VALID,0,VALID,102.338,VALID,0,VALID,24.1422,VALID,104,VALID,0.276953,
2010-06-30, 02:38:04,VALID,1009.09,VALID,0,VALID,102.368,VALID,0,VALID,24.1227,VALID,147,VALID,0.509766,
2010-06-30, 02:39:04,VALID,1009.06,VALID,0,VALID,102.368,VALID,0,VALID,24.1227,VALID,147,VALID,0.354688,
2010-06-30, 02:40:04,VALID,1009.07,VALID,0,VALID,102.376,VALID,0,VALID,24.0819,VALID,147,VALID,0.164844,
2010-06-30, 02:41:04,VALID,1009.07,VALID,0,VALID,102.414,VALID,0,VALID,24.1032,VALID,147,VALID,0.217578,
2010-06-30, 02:42:04,VALID,1009.06,VALID,0,VALID,102.437,VALID,0,VALID,24.0624,VALID,147,VALID,0,
2010-06-30, 02:43:04,VALID,1009.07,VALID,0,VALID,102.444,VALID,0,VALID,24.0837,VALID,147,VALID,0,
2010-06-30, 02:44:04,VALID,1009.06,VALID,0,VALID,102.46,VALID,0,VALID,24.0624,VALID,147,VALID,0.00195313,
2010-06-30, 02:45:04,VALID,1009.06,VALID,0,VALID,102.475,VALID,0,VALID,24.0643,VALID,114,VALID,0.665234,
2010-06-30, 02:46:04,VALID,1009.02,VALID,0,VALID,102.49,VALID,0,VALID,24.0643,VALID,113,VALID,0.444531,
2010-06-30, 02:47:04,VALID,1009.01,VALID,0,VALID,102.482,VALID,0,VALID,24.0837,VALID,105,VALID,0.428125,
2010-06-30, 02:48:04,VALID,1009,VALID,0,VALID,102.482,VALID,0,VALID,24.0837,VALID,103,VALID,0.367578,
2010-06-30, 02:49:04,VALID,1009.03,VALID,0,VALID,102.482,VALID,0,VALID,24.0643,VALID,116,VALID,0.629687,
2010-06-30, 02:50:04,VALID,1009.03,VALID,0,VALID,102.528,VALID,0,VALID,24.0643,VALID,115,VALID,0.465234,
2010-06-30, 02:51:04,VALID,1009.04,VALID,0,VALID,102.513,VALID,0,VALID,24.0643,VALID,121,VALID,0.555078,
2010-06-30, 02:52:04,VALID,1009.08,VALID,0,VALID,102.536,VALID,0,VALID,24.0643,VALID,146,VALID,0.758594,
2010-06-30, 02:53:04,VALID,1009.1,VALID,0,VALID,102.544,VALID,0,VALID,24.0448,VALID,132,VALID,0.9875,
2010-06-30, 02:54:04,VALID,1009.09,VALID,0,VALID,102.551,VALID,0,VALID,24.0448,VALID,131,VALID,0.558984,
2010-06-30, 02:55:04,VALID,1009.08,VALID,0,VALID,102.551,VALID,0,VALID,24.0253,VALID,115,VALID,0.953125,
2010-06-30, 02:56:04,VALID,1009.09,VALID,0,VALID,102.551,VALID,0,VALID,24.0448,VALID,111,VALID,0.450391,
2010-06-30, 02:57:04,VALID,1009.11,VALID,0,VALID,102.551,VALID,0,VALID,24.0253,VALID,98,VALID,0.583594,
2010-06-30, 02:58:04,VALID,1009.12,VALID,0,VALID,102.551,VALID,0,VALID,24.0661,VALID,84,VALID,0.814844,
2010-06-30, 02:59:04,VALID,1009.13,VALID,0,VALID,102.536,VALID,0,VALID,24.0253,VALID,102,VALID,0.951953,
2010-06-30, 03:00:04,VALID,1009.14,VALID,0,VALID,102.528,VALID,0,VALID,24.0448,VALID,111,VALID,0.775781,
2010-06-30, 03:01:04,VALID,1009.15,VALID,0,VALID,102.528,VALID,0,VALID,24.0448,VALID,107,VALID,0.716797,
2010-06-30, 03:02:04,VALID,1009.14,VALID,0,VALID,102.513,VALID,0,VALID,24.0253,VALID,119,VALID,0.539844,
2010-06-30, 03:03:04,VALID,1009.1,VALID,0,VALID,102.513,VALID,0,VALID,24.0466,VALID,109,VALID,0.684375,
2010-06-30, 03:04:04,VALID,1009.09,VALID,0,VALID,102.505,VALID,0,VALID,24.0253,VALID,127,VALID,0.071875,
2010-06-30, 03:05:04,VALID,1009.08,VALID,0,VALID,102.482,VALID,0,VALID,24.0253,VALID,105,VALID,0.613672,
2010-06-30, 03:06:04,VALID,1009.06,VALID,0,VALID,102.528,VALID,0,VALID,24.0253,VALID,96,VALID,0.585938,
2010-06-30, 03:07:04,VALID,1009.05,VALID,0,VALID,102.498,VALID,0,VALID,24.0253,VALID,96,VALID,0.540625,
2010-06-30, 03:08:04,VALID,1009.06,VALID,0,VALID,102.49,VALID,0,VALID,24.0253,VALID,107,VALID,0.583594,
2010-06-30, 03:09:04,VALID,1009.03,VALID,0,VALID,102.49,VALID,0,VALID,24.0253,VALID,81,VALID,0.975781,
2010-06-30, 03:10:04,VALID,1009.06,VALID,0,VALID,102.475,VALID,0,VALID,24.0253,VALID,96,VALID,0.809766,
2010-06-30, 03:11:04,VALID,1009.05,VALID,0,VALID,102.49,VALID,0,VALID,24.0253,VALID,89,VALID,0.314063,
2010-06-30, 03:12:04,VALID,1009.02,VALID,0,VALID,102.49,VALID,0,VALID,24.0253,VALID,103,VALID,0.438672,
2010-06-30, 03:13:04,VALID,1009.05,VALID,0,VALID,102.49,VALID,0,VALID,24.0253,VALID,81,VALID,0.546094,
2010-06-30, 03:14:04,VALID,1009.02,VALID,0,VALID,102.49,VALID,0,VALID,24.0058,VALID,122,VALID,0.665625,
2010-06-30, 03:15:04,VALID,1009.03,VALID,0,VALID,102.49,VALID,0,VALID,24.0058,VALID,63,VALID,0.547266,
2010-06-30, 03:16:04,VALID,1009.03,VALID,0,VALID,102.498,VALID,0,VALID,24.0058,VALID,64,VALID,0.884375,
2010-06-30, 03:17:04,VALID,1009.01,VALID,0,VALID,102.498,VALID,0,VALID,24.0058,VALID,62,VALID,0.922656,
2010-06-30, 03:18:04,VALID,1008.99,VALID,0,VALID,102.49,VALID,0,VALID,23.9863,VALID,68,VALID,0.530469,
2010-06-30, 03:19:04,VALID,1008.98,VALID,0,VALID,102.482,VALID,0,VALID,23.9863,VALID,77,VALID,0.593359,
2010-06-30, 03:20:04,VALID,1008.97,VALID,0,VALID,102.505,VALID,0,VALID,23.9863,VALID,107,VALID,0.00351562,
2010-06-30, 03:21:04,VALID,1008.94,VALID,0,VALID,102.482,VALID,0,VALID,23.9668,VALID,98,VALID,0.580469,
2010-06-30, 03:22:04,VALID,1008.9,VALID,0,VALID,102.505,VALID,0,VALID,23.9473,VALID,83,VALID,0.353516,
2010-06-30, 03:23:04,VALID,1008.87,VALID,0,VALID,102.505,VALID,0,VALID,23.9473,VALID,83,VALID,0.0703125,
2010-06-30, 03:24:04,VALID,1008.89,VALID,0,VALID,102.536,VALID,0,VALID,23.9491,VALID,83,VALID,0,
2010-06-30, 03:25:04,VALID,1008.88,VALID,0,VALID,102.551,VALID,0,VALID,23.9278,VALID,83,VALID,0,
2010-06-30, 03:26:04,VALID,1008.86,VALID,0,VALID,102.551,VALID,0,VALID,23.9278,VALID,83,VALID,0,
2010-06-30, 03:27:04,VALID,1008.86,VALID,0,VALID,102.566,VALID,0,VALID,23.9084,VALID,83,VALID,0,
2010-06-30, 03:28:04,VALID,1008.85,VALID,0,VALID,102.566,VALID,0,VALID,23.9278,VALID,83,VALID,0,
2010-06-30, 03:29:04,VALID,1008.85,VALID,0,VALID,102.589,VALID,0,VALID,23.9278,VALID,83,VALID,0.108203,
2010-06-30, 03:30:04,VALID,1008.84,VALID,0,VALID,102.612,VALID,0,VALID,23.9278,VALID,83,VALID,0,
2010-06-30, 03:31:04,VALID,1008.85,VALID,0,VALID,102.589,VALID,0,VALID,23.9084,VALID,83,VALID,0,
2010-06-30, 03:32:04,VALID,1008.86,VALID,0,VALID,102.612,VALID,0,VALID,23.9278,VALID,83,VALID,0,
2010-06-30, 03:33:04,VALID,1008.88,VALID,0,VALID,102.612,VALID,0,VALID,23.9278,VALID,83,VALID,0,
2010-06-30, 03:34:04,VALID,1008.89,VALID,0,VALID,102.635,VALID,0,VALID,23.9084,VALID,106,VALID,0.225781,
2010-06-30, 03:35:04,VALID,1008.87,VALID,0,VALID,102.62,VALID,0,VALID,23.9084,VALID,128,VALID,0.180469,
2010-06-30, 03:36:04,VALID,1008.87,VALID,0,VALID,102.605,VALID,0,VALID,23.9084,VALID,128,VALID,0.217187,
2010-06-30, 03:37:04,VALID,1008.9,VALID,0,VALID,102.627,VALID,0,VALID,23.9473,VALID,128,VALID,0.0105469,
2010-06-30, 03:38:04,VALID,1008.89,VALID,0,VALID,102.627,VALID,0,VALID,23.9278,VALID,128,VALID,0.178516,
2010-06-30, 03:39:04,VALID,1008.87,VALID,0,VALID,102.62,VALID,0,VALID,23.9084,VALID,128,VALID,0.261719,
2010-06-30, 03:40:04,VALID,1008.86,VALID,0,VALID,102.627,VALID,0,VALID,23.9278,VALID,128,VALID,0.0910156,
2010-06-30, 03:41:04,VALID,1008.84,VALID,0,VALID,102.635,VALID,0,VALID,23.9084,VALID,128,VALID,0.0167969,
2010-06-30, 03:42:04,VALID,1008.81,VALID,0,VALID,102.643,VALID,0,VALID,23.8871,VALID,128,VALID,0.477344,
2010-06-30, 03:43:04,VALID,1008.8,VALID,0,VALID,102.635,VALID,0,VALID,23.9084,VALID,128,VALID,0.327734,
2010-06-30, 03:44:04,VALID,1008.79,VALID,0,VALID,102.643,VALID,0,VALID,23.9084,VALID,128,VALID,0.389844,
2010-06-30, 03:45:04,VALID,1008.78,VALID,0,VALID,102.635,VALID,0,VALID,23.9084,VALID,128,VALID,0.244531,
2010-06-30, 03:46:04,VALID,1008.76,VALID,0,VALID,102.643,VALID,0,VALID,23.9084,VALID,128,VALID,0.25,
2010-06-30, 03:47:04,VALID,1008.75,VALID,0,VALID,102.65,VALID,0,VALID,23.9084,VALID,128,VALID,0.198047,
2010-06-30, 03:48:04,VALID,1008.75,VALID,0,VALID,102.635,VALID,0.105969,VALID,23.8871,VALID,128,VALID,0,
2010-06-30, 03:49:04,VALID,1008.78,VALID,0,VALID,102.643,VALID,0,VALID,23.9084,VALID,128,VALID,0,
2010-06-30, 03:50:04,VALID,1008.79,VALID,0,VALID,102.643,VALID,0.105969,VALID,23.9278,VALID,128,VALID,0,